TimeCST,TemperatureF,Dew PointF,Humidity,Sea Level PressureIn,VisibilityMPH,Wind Direction,Wind SpeedMPH,Gust SpeedMPH,PrecipitationIn,Events,Conditions,WindDirDegrees,DateUTC
12:15 AM,42.8,32.0,66,30.16,10.0,North,6.9,-,N/A,,Mostly Cloudy,360,2012-12-04 06:15:00
12:35 AM,42.8,32.0,66,30.16,10.0,North,5.8,-,N/A,,Scattered Clouds,360,2012-12-04 06:35:00
12:55 AM,42.8,32.0,66,30.17,10.0,NNW,5.8,-,N/A,,Mostly Cloudy,340,2012-12-04 06:55:00
1:15 AM,42.8,32.0,66,30.17,10.0,West,4.6,-,N/A,,Scattered Clouds,260,2012-12-04 07:15:00
1:35 AM,44.6,32.0,61,30.17,10.0,North,4.6,-,N/A,,Clear,350,2012-12-04 07:35:00
1:55 AM,44.6,32.0,61,30.18,10.0,WNW,9.2,-,N/A,,Mostly Cloudy,290,2012-12-04 07:55:00
2:15 AM,46.4,32.0,57,30.18,10.0,NE,4.6,-,N/A,,Overcast,50,2012-12-04 08:15:00
2:55 AM,46.4,32.0,57,30.18,10.0,ENE,8.1,-,N/A,,Clear,70,2012-12-04 08:55:00
3:15 AM,44.6,32.0,61,30.19,10.0,ENE,6.9,-,N/A,,Scattered Clouds,60,2012-12-04 09:15:00
3:35 AM,44.6,32.0,61,30.21,10.0,NNE,9.2,-,N/A,,Scattered Clouds,30,2012-12-04 09:35:00
3:55 AM,42.8,30.2,61,30.22,10.0,NNW,6.9,-,N/A,,Scattered Clouds,330,2012-12-04 09:55:00
4:15 AM,42.8,30.2,61,30.23,10.0,NNW,9.2,-,N/A,,Scattered Clouds,340,2012-12-04 10:15:00
4:35 AM,41.0,30.2,65,30.23,10.0,NW,5.8,-,N/A,,Clear,320,2012-12-04 10:35:00
4:55 AM,37.4,30.2,75,30.24,10.0,NW,8.1,-,N/A,,Clear,310,2012-12-04 10:55:00
5:15 AM,37.4,30.2,75,30.24,10.0,NW,5.8,-,N/A,,Mostly Cloudy,310,2012-12-04 11:15:00
5:35 AM,35.6,28.4,75,30.25,10.0,WNW,8.1,-,N/A,,Scattered Clouds,300,2012-12-04 11:35:00
5:55 AM,33.8,28.4,81,30.27,10.0,WNW,8.1,-,N/A,,Scattered Clouds,290,2012-12-04 11:55:00
6:15 AM,33.8,28.4,81,30.28,10.0,NW,10.4,-,N/A,,Clear,310,2012-12-04 12:15:00
6:35 AM,32.0,26.6,80,30.29,10.0,NW,6.9,-,N/A,,Clear,310,2012-12-04 12:35:00
6:55 AM,32.0,26.6,80,30.31,10.0,NW,6.9,-,N/A,,Clear,310,2012-12-04 12:55:00
7:35 AM,32.0,26.6,80,30.31,10.0,NNW,4.6,-,N/A,,Clear,330,2012-12-04 13:35:00
7:55 AM,32.0,24.8,75,30.33,10.0,NW,6.9,-,N/A,,Clear,320,2012-12-04 13:55:00
8:15 AM,32.0,26.6,80,30.33,10.0,WNW,6.9,-,N/A,,Clear,300,2012-12-04 14:15:00
8:35 AM,33.8,28.4,81,30.34,10.0,WNW,6.9,-,N/A,,Clear,300,2012-12-04 14:35:00
8:55 AM,37.4,28.4,70,30.34,10.0,WNW,5.8,-,N/A,,Clear,290,2012-12-04 14:55:00
9:15 AM,41.0,28.4,61,30.35,10.0,WNW,4.6,-,N/A,,Clear,300,2012-12-04 15:15:00
9:35 AM,44.6,28.4,53,30.36,10.0,WNW,6.9,-,N/A,,Clear,290,2012-12-04 15:35:00
9:55 AM,46.4,28.4,50,30.37,10.0,NW,6.9,-,N/A,,Clear,310,2012-12-04 15:55:00
10:15 AM,50.0,26.6,40,30.39,10.0,WNW,6.9,-,N/A,,Clear,300,2012-12-04 16:15:00
10:35 AM,50.0,23.0,35,30.38,10.0,Calm,Calm,-,N/A,,Clear,0,2012-12-04 16:35:00
10:55 AM,51.8,23.0,33,30.39,10.0,Calm,Calm,-,N/A,,Clear,0,2012-12-04 16:55:00
11:15 AM,53.6,23.0,30,30.38,10.0,WNW,3.5,-,N/A,,Clear,300,2012-12-04 17:15:00
11:35 AM,53.6,21.2,28,30.37,10.0,South,4.6,-,N/A,,Clear,170,2012-12-04 17:35:00
12:15 PM,55.4,19.4,25,30.35,10.0,SE,3.5,-,N/A,,Clear,140,2012-12-04 18:15:00
12:35 PM,55.4,17.6,23,30.35,10.0,NE,4.6,-,N/A,,Clear,50,2012-12-04 18:35:00
12:55 PM,55.4,15.8,21,30.35,10.0,Calm,Calm,-,N/A,,Clear,0,2012-12-04 18:55:00
1:15 PM,57.2,14.0,18,30.34,10.0,ENE,3.5,-,N/A,,Clear,70,2012-12-04 19:15:00
1:35 PM,59.0,12.2,16,30.33,10.0,NNE,3.5,-,N/A,,Clear,30,2012-12-04 19:35:00
1:55 PM,59.0,14.0,17,30.33,10.0,Calm,Calm,-,N/A,,Clear,0,2012-12-04 19:55:00
2:15 PM,59.0,12.2,16,30.33,10.0,Calm,Calm,-,N/A,,Clear,0,2012-12-04 20:15:00
2:35 PM,59.0,12.2,16,30.32,10.0,South,5.8,-,N/A,,Clear,190,2012-12-04 20:35:00
2:55 PM,59.0,12.2,16,30.32,10.0,Calm,Calm,-,N/A,,Clear,0,2012-12-04 20:55:00
3:15 PM,60.8,10.4,14,30.31,10.0,Calm,Calm,-,N/A,,Clear,0,2012-12-04 21:15:00
3:55 PM,59.0,12.2,16,30.31,10.0,Calm,Calm,-,N/A,,Clear,0,2012-12-04 21:55:00
4:15 PM,59.0,12.2,16,30.31,10.0,South,3.5,-,N/A,,Clear,190,2012-12-04 22:15:00
4:35 PM,59.0,10.4,15,30.30,10.0,SSW,5.8,-,N/A,,Clear,200,2012-12-04 22:35:00
4:55 PM,59.0,10.4,15,30.30,10.0,South,5.8,-,N/A,,Clear,190,2012-12-04 22:55:00
5:15 PM,53.6,12.2,19,30.30,10.0,South,6.9,-,N/A,,Clear,170,2012-12-04 23:15:00
5:35 PM,48.2,10.4,22,30.30,10.0,SSE,9.2,-,N/A,,Clear,160,2012-12-04 23:35:00
5:55 PM,46.4,10.4,23,30.29,10.0,South,9.2,-,N/A,,Clear,170,2012-12-04 23:55:00
6:15 PM,44.6,10.4,25,30.29,10.0,SSE,8.1,-,N/A,,Clear,160,2012-12-05 00:15:00
6:35 PM,41.0,10.4,29,30.30,10.0,South,8.1,-,N/A,,Clear,170,2012-12-05 00:35:00
6:55 PM,41.0,10.4,29,30.30,10.0,South,8.1,-,N/A,,Clear,170,2012-12-05 00:55:00
7:15 PM,37.4,10.4,33,30.29,10.0,SSE,9.2,-,N/A,,Clear,160,2012-12-05 01:15:00
7:35 PM,37.4,8.6,30,30.30,10.0,SSE,8.1,-,N/A,,Clear,160,2012-12-05 01:35:00
7:55 PM,35.6,8.6,33,30.30,10.0,South,8.1,-,N/A,,Clear,170,2012-12-05 01:55:00
8:15 PM,35.6,8.6,33,30.29,10.0,SSE,10.4,-,N/A,,Clear,150,2012-12-05 02:15:00
8:35 PM,35.6,10.4,35,30.28,7.0,SSE,10.4,-,N/A,,Clear,150,2012-12-05 02:35:00
8:55 PM,37.4,10.4,33,30.28,10.0,SSE,9.2,-,N/A,,Clear,160,2012-12-05 02:55:00
9:15 PM,35.6,12.2,38,30.29,10.0,South,9.2,-,N/A,,Clear,170,2012-12-05 03:15:00
9:35 PM,33.8,10.4,38,30.29,10.0,South,9.2,-,N/A,,Clear,180,2012-12-05 03:35:00
9:55 PM,35.6,12.2,38,30.29,10.0,South,9.2,-,N/A,,Clear,180,2012-12-05 03:55:00
10:15 PM,35.6,12.2,38,30.29,10.0,South,6.9,-,N/A,,Clear,190,2012-12-05 04:15:00
10:35 PM,35.6,12.2,38,30.29,10.0,South,6.9,-,N/A,,Clear,190,2012-12-05 04:35:00
10:55 PM,33.8,12.2,41,30.29,10.0,South,6.9,-,N/A,,Clear,180,2012-12-05 04:55:00
11:15 PM,33.8,10.4,38,30.29,10.0,South,8.1,-,N/A,,Clear,180,2012-12-05 05:15:00
11:35 PM,32.0,12.2,44,30.28,10.0,South,8.1,-,N/A,,Clear,170,2012-12-05 05:35:00
11:55 PM,32.0,10.4,41,30.29,10.0,South,8.1,-,N/A,,Clear,180,2012-12-05 05:55:00